Time,TemperatureF,DewpointF,PressureIn,WindDirection,WindDirectionDegrees,WindSpeedMPH,WindSpeedGustMPH,Humidity,HourlyPrecipIn,Conditions,Clouds,dailyrainin,SoftwareType,DateUTC
2013-07-09 00:01:00,64.3,64.3,30.05,NNE,18,0.0,0.0,100,0.00,,,0.00,Wunderground v.1.15,2013-07-09 04:01:00,
2013-07-09 00:02:00,64.3,64.3,30.05,NNE,18,0.0,0.0,100,0.00,,,0.00,Wunderground v.1.15,2013-07-09 04:02:00,
2013-07-09 00:03:00,64.3,64.3,30.05,NNE,18,0.0,0.0,100,0.00,,,0.00,Wunderground v.1.15,2013-07-09 04:03:00,
2013-07-09 00:07:00,64.5,64.5,30.05,NNE,18,0.0,0.0,100,0.00,,,0.00,Wunderground v.1.15,2013-07-09 04:07:00,
2013-07-09 00:11:00,64.5,64.5,30.05,NNE,18,0.0,0.0,100,0.00,,,0.00,Wunderground v.1.15,2013-07-09 04:11:00,
2013-07-09 00:16:00,64.7,64.7,30.05,NNE,18,0.0,0.0,100,0.00,,,0.00,Wunderground v.1.15,2013-07-09 04:16:00,
2013-07-09 00:22:00,64.3,64.3,30.05,NNE,18,0.0,0.0,100,0.00,,,0.00,Wunderground v.1.15,2013-07-09 04:22:00,
2013-07-09 00:28:00,64.3,64.3,30.05,NNE,18,0.0,0.0,100,0.00,,,0.00,Wunderground v.1.15,2013-07-09 04:28:00,
2013-07-09 00:34:00,64.3,64.3,30.05,NNE,18,0.0,0.0,100,0.00,,,0.00,Wunderground v.1.15,2013-07-09 04:34:00,
2013-07-09 00:40:00,64.5,64.5,30.05,NNE,18,0.0,0.0,100,0.00,,,0.00,Wunderground v.1.15,2013-07-09 04:40:00,
2013-07-09 00:46:00,64.5,64.5,30.05,NNE,18,0.0,0.0,100,0.00,,,0.00,Wunderground v.1.15,2013-07-09 04:46:00,
2013-07-09 00:51:00,64.5,64.5,30.05,NNE,18,0.0,0.0,100,0.00,,,0.00,Wunderground v.1.15,2013-07-09 04:51:00,
2013-07-09 00:56:00,64.7,64.7,30.05,NNE,18,0.0,0.0,100,0.00,,,0.00,Wunderground v.1.15,2013-07-09 04:56:00,
2013-07-09 01:01:00,64.5,64.5,30.05,NNE,18,0.0,0.0,100,0.00,,,0.00,Wunderground v.1.15,2013-07-09 05:01:00,
2013-07-09 01:06:00,64.5,64.5,30.05,NNE,18,0.0,0.0,100,0.00,,,0.00,Wunderground v.1.15,2013-07-09 05:06:00,
2013-07-09 01:12:00,64.7,64.7,30.05,NNE,18,0.0,0.0,100,0.00,,,0.00,Wunderground v.1.15,2013-07-09 05:12:00,
2013-07-09 01:17:00,64.5,64.5,30.05,NNE,18,0.0,0.0,100,0.00,,,0.00,Wunderground v.1.15,2013-07-09 05:17:00,
2013-07-09 01:22:00,64.7,64.7,30.05,NNE,18,0.0,0.0,100,0.00,,,0.00,Wunderground v.1.15,2013-07-09 05:22:00,
2013-07-09 01:27:00,64.3,64.3,30.05,NNE,18,0.0,0.0,100,0.00,,,0.00,Wunderground v.1.15,2013-07-09 05:27:00,
2013-07-09 01:33:00,64.3,64.3,30.05,NNE,18,0.0,0.0,100,0.00,,,0.00,Wunderground v.1.15,2013-07-09 05:33:00,
2013-07-09 01:38:00,64.5,64.5,30.05,NNE,18,0.0,0.0,100,0.00,,,0.00,Wunderground v.1.15,2013-07-09 05:38:00,
2013-07-09 01:44:00,64.5,64.5,30.05,NNE,18,0.0,0.0,100,0.00,,,0.00,Wunderground v.1.15,2013-07-09 05:44:00,
2013-07-09 01:49:00,64.5,64.5,30.05,NNE,18,0.0,0.0,100,0.00,,,0.00,Wunderground v.1.15,2013-07-09 05:49:00,
2013-07-09 01:54:00,64.7,64.7,30.05,NNE,18,0.0,0.0,100,0.00,,,0.00,Wunderground v.1.15,2013-07-09 05:54:00,
2013-07-09 01:59:00,64.7,64.7,30.05,NNE,18,0.0,0.0,100,0.00,,,0.00,Wunderground v.1.15,2013-07-09 05:59:00,
2013-07-09 02:04:00,64.7,64.7,30.05,NNE,18,0.0,0.0,100,0.00,,,0.00,Wunderground v.1.15,2013-07-09 06:04:00,
2013-07-09 02:09:00,64.7,64.7,30.05,NNE,18,0.0,0.0,100,0.00,,,0.00,Wunderground v.1.15,2013-07-09 06:09:00,
2013-07-09 02:14:00,64.7,64.7,30.05,NNE,18,0.0,0.0,100,0.00,,,0.00,Wunderground v.1.15,2013-07-09 06:14:00,
2013-07-09 02:19:00,64.7,64.7,30.05,NNE,18,0.0,0.0,100,0.00,,,0.00,Wunderground v.1.15,2013-07-09 06:19:00,
2013-07-09 02:25:00,64.7,64.7,30.05,NNE,18,0.0,0.0,100,0.00,,,0.00,Wunderground v.1.15,2013-07-09 06:25:00,
2013-07-09 02:30:00,64.7,64.7,30.05,NNE,18,0.0,0.0,100,0.00,,,0.00,Wunderground v.1.15,2013-07-09 06:30:00,
2013-07-09 02:35:00,64.7,64.7,30.05,NNE,18,0.0,0.0,100,0.00,,,0.00,Wunderground v.1.15,2013-07-09 06:35:00,
2013-07-09 02:40:00,64.7,64.7,30.04,NNE,18,0.0,0.0,100,0.00,,,0.00,Wunderground v.1.15,2013-07-09 06:40:00,
2013-07-09 02:45:00,64.8,64.8,30.04,NNE,18,0.0,0.0,100,0.00,,,0.00,Wunderground v.1.15,2013-07-09 06:45:00,
2013-07-09 02:51:00,64.8,64.8,30.04,NNE,18,0.0,0.0,100,0.00,,,0.00,Wunderground v.1.15,2013-07-09 06:51:00,
2013-07-09 02:56:00,64.8,64.8,30.03,NNE,18,0.0,0.0,100,0.00,,,0.00,Wunderground v.1.15,2013-07-09 06:56:00,
2013-07-09 03:01:00,64.7,64.7,30.03,NNE,18,0.0,0.0,100,0.00,,,0.00,Wunderground v.1.15,2013-07-09 07:01:00,
2013-07-09 03:06:00,64.7,64.7,30.03,NNE,18,0.0,0.0,100,0.00,,,0.00,Wunderground v.1.15,2013-07-09 07:06:00,
2013-07-09 03:11:00,64.7,64.7,30.04,NNE,18,0.0,0.0,100,0.00,,,0.00,Wunderground v.1.15,2013-07-09 07:11:00,
2013-07-09 03:16:00,64.5,64.5,30.04,NNE,18,0.0,0.0,100,0.00,,,0.00,Wunderground v.1.15,2013-07-09 07:16:00,
2013-07-09 03:21:00,64.7,64.7,30.04,NNE,18,0.0,0.0,100,0.00,,,0.00,Wunderground v.1.15,2013-07-09 07:21:00,
2013-07-09 03:26:00,64.7,64.7,30.04,NNE,18,0.0,0.0,100,0.00,,,0.00,Wunderground v.1.15,2013-07-09 07:26:00,
2013-07-09 03:31:00,64.5,64.5,30.04,NNE,18,0.0,0.0,100,0.00,,,0.00,Wunderground v.1.15,2013-07-09 07:31:00,
2013-07-09 03:36:00,64.8,64.8,30.04,NNE,18,0.0,0.0,100,0.00,,,0.00,Wunderground v.1.15,2013-07-09 07:36:00,
2013-07-09 03:41:00,65.0,65.0,30.04,NNE,18,0.0,0.0,100,0.00,,,0.00,Wunderground v.1.15,2013-07-09 07:41:00,
2013-07-09 03:46:00,65.0,65.0,30.04,NNE,18,0.0,0.0,100,0.00,,,0.00,Wunderground v.1.15,2013-07-09 07:46:00,
2013-07-09 03:52:00,65.0,65.0,30.04,NNE,18,0.0,0.0,100,0.00,,,0.00,Wunderground v.1.15,2013-07-09 07:52:00,
2013-07-09 03:58:00,65.0,65.0,30.04,NNE,18,0.0,0.0,100,0.00,,,0.00,Wunderground v.1.15,2013-07-09 07:58:00,
2013-07-09 04:03:00,64.8,64.8,30.04,NNE,18,0.0,0.0,100,0.00,,,0.00,Wunderground v.1.15,2013-07-09 08:03:00,
2013-07-09 04:08:00,64.7,64.7,30.04,NNE,18,0.0,0.0,100,0.00,,,0.00,Wunderground v.1.15,2013-07-09 08:08:00,
2013-07-09 04:13:00,64.7,64.7,30.05,NNE,18,0.0,0.0,100,0.00,,,0.00,Wunderground v.1.15,2013-07-09 08:13:00,
2013-07-09 04:18:00,64.8,64.8,30.05,NNE,18,0.0,0.0,100,0.00,,,0.00,Wunderground v.1.15,2013-07-09 08:18:00,
2013-07-09 04:23:00,64.8,64.8,30.05,NNE,18,0.0,0.0,100,0.00,,,0.00,Wunderground v.1.15,2013-07-09 08:23:00,
2013-07-09 04:29:00,65.0,65.0,30.04,NNE,18,0.0,0.0,100,0.00,,,0.00,Wunderground v.1.15,2013-07-09 08:29:00,
2013-07-09 04:34:00,65.0,65.0,30.04,NNE,18,0.0,0.0,100,0.00,,,0.00,Wunderground v.1.15,2013-07-09 08:34:00,
2013-07-09 04:39:00,64.7,64.7,30.04,NNE,18,0.0,0.0,100,0.00,,,0.00,Wunderground v.1.15,2013-07-09 08:39:00,
2013-07-09 04:44:00,64.7,64.7,30.04,NNE,18,0.0,0.0,100,0.00,,,0.00,Wunderground v.1.15,2013-07-09 08:44:00,
2013-07-09 04:49:00,64.8,64.8,30.04,NNE,18,0.0,0.0,100,0.00,,,0.00,Wunderground v.1.15,2013-07-09 08:49:00,
2013-07-09 04:54:00,64.7,64.7,30.05,NNE,18,0.0,0.0,100,0.00,,,0.00,Wunderground v.1.15,2013-07-09 08:54:00,
2013-07-09 05:00:00,64.8,64.8,30.05,NNE,18,0.0,0.0,100,0.00,,,0.00,Wunderground v.1.15,2013-07-09 09:00:00,
2013-07-09 05:05:00,64.8,64.8,30.05,NNE,18,0.0,0.0,100,0.00,,,0.00,Wunderground v.1.15,2013-07-09 09:05:00,
2013-07-09 05:10:00,65.0,65.0,30.05,NNE,18,0.0,0.0,100,0.00,,,0.00,Wunderground v.1.15,2013-07-09 09:10:00,
2013-07-09 05:15:00,64.8,64.8,30.05,NNE,18,0.0,0.0,100,0.00,,,0.00,Wunderground v.1.15,2013-07-09 09:15:00,
2013-07-09 05:17:00,64.8,64.8,30.05,NNE,18,0.0,0.0,100,0.00,,,0.00,Wunderground v.1.15,2013-07-09 09:17:00,
2013-07-09 05:22:00,64.8,64.8,30.05,NNE,18,0.0,0.0,100,0.00,,,0.00,Wunderground v.1.15,2013-07-09 09:22:00,
2013-07-09 05:27:00,65.0,65.0,30.06,NNE,18,0.0,0.0,100,0.00,,,0.00,Wunderground v.1.15,2013-07-09 09:27:00,
2013-07-09 05:33:00,65.2,65.2,30.06,NNE,18,0.0,0.0,100,0.00,,,0.00,Wunderground v.1.15,2013-07-09 09:33:00,
2013-07-09 05:38:00,65.0,65.0,30.06,NNE,18,0.0,0.0,100,0.00,,,0.00,Wunderground v.1.15,2013-07-09 09:38:00,
2013-07-09 05:43:00,65.0,65.0,30.06,NNE,18,0.0,0.0,100,0.00,,,0.00,Wunderground v.1.15,2013-07-09 09:43:00,
2013-07-09 05:48:00,64.8,64.8,30.06,NNE,18,0.0,0.0,100,0.00,,,0.00,Wunderground v.1.15,2013-07-09 09:48:00,
2013-07-09 05:53:00,64.8,64.8,30.06,NNE,18,0.0,0.0,100,0.00,,,0.00,Wunderground v.1.15,2013-07-09 09:53:00,
2013-07-09 05:58:00,65.0,65.0,30.07,NNE,18,0.0,0.0,100,0.00,,,0.00,Wunderground v.1.15,2013-07-09 09:58:00,
2013-07-09 06:03:00,64.7,64.7,30.07,NNE,18,0.0,0.0,100,0.00,,,0.00,Wunderground v.1.15,2013-07-09 10:03:00,
2013-07-09 06:08:00,64.8,64.8,30.07,NNE,18,0.0,0.0,100,0.00,,,0.00,Wunderground v.1.15,2013-07-09 10:08:00,
2013-07-09 06:13:00,65.2,65.2,30.07,NNE,18,0.0,0.0,100,0.00,,,0.00,Wunderground v.1.15,2013-07-09 10:13:00,
2013-07-09 06:18:00,65.2,65.2,30.07,NNE,18,0.0,0.0,100,0.00,,,0.00,Wunderground v.1.15,2013-07-09 10:18:00,
2013-07-09 06:23:00,65.0,65.0,30.07,NNE,18,0.0,0.0,100,0.00,,,0.00,Wunderground v.1.15,2013-07-09 10:23:00,
2013-07-09 06:28:00,65.0,65.0,30.07,NNE,18,0.0,0.0,100,0.00,,,0.00,Wunderground v.1.15,2013-07-09 10:28:00,
2013-07-09 06:34:00,65.0,65.0,30.07,NNE,18,0.0,0.0,100,0.00,,,0.00,Wunderground v.1.15,2013-07-09 10:34:00,
2013-07-09 06:39:00,65.2,65.2,30.07,NNE,18,0.0,0.0,100,0.00,,,0.00,Wunderground v.1.15,2013-07-09 10:39:00,
2013-07-09 06:44:00,65.3,65.3,30.08,NNE,18,0.0,0.0,100,0.00,,,0.00,Wunderground v.1.15,2013-07-09 10:44:00,
2013-07-09 06:49:00,65.5,65.5,30.08,NNE,18,0.0,0.0,100,0.00,,,0.00,Wunderground v.1.15,2013-07-09 10:49:00,
2013-07-09 06:54:00,65.5,65.5,30.08,NNE,18,0.0,0.0,100,0.00,,,0.00,Wunderground v.1.15,2013-07-09 10:54:00,
2013-07-09 06:59:00,65.3,65.3,30.07,NNE,18,0.0,0.0,100,0.00,,,0.00,Wunderground v.1.15,2013-07-09 10:59:00,
2013-07-09 07:04:00,65.3,65.3,30.07,NNE,18,0.0,0.0,100,0.00,,,0.00,Wunderground v.1.15,2013-07-09 11:04:00,
2013-07-09 07:09:00,65.2,65.2,30.07,NNE,18,0.0,0.0,100,0.00,,,0.00,Wunderground v.1.15,2013-07-09 11:09:00,
2013-07-09 07:14:00,65.0,65.0,30.08,NNE,18,0.0,0.0,100,0.00,,,0.00,Wunderground v.1.15,2013-07-09 11:14:00,
2013-07-09 07:19:00,65.0,65.0,30.08,NNE,18,0.0,0.0,100,0.00,,,0.00,Wunderground v.1.15,2013-07-09 11:19:00,
2013-07-09 07:24:00,64.8,64.8,30.08,NNE,18,0.0,0.0,100,0.00,,,0.00,Wunderground v.1.15,2013-07-09 11:24:00,
2013-07-09 07:29:00,65.0,65.0,30.08,NNE,18,0.0,0.0,100,0.00,,,0.00,Wunderground v.1.15,2013-07-09 11:29:00,
2013-07-09 07:34:00,65.0,65.0,30.08,NNE,18,0.0,0.0,100,0.00,,,0.00,Wunderground v.1.15,2013-07-09 11:34:00,
2013-07-09 07:39:00,65.0,65.0,30.08,NNE,18,0.0,0.0,100,0.00,,,0.00,Wunderground v.1.15,2013-07-09 11:39:00,
2013-07-09 07:44:00,65.2,65.2,30.08,NNE,18,0.0,0.0,100,0.00,,,0.00,Wunderground v.1.15,2013-07-09 11:44:00,
2013-07-09 07:50:00,65.3,65.3,30.08,NNE,18,0.0,0.0,100,0.00,,,0.00,Wunderground v.1.15,2013-07-09 11:50:00,
2013-07-09 07:55:00,65.2,65.2,30.08,NNE,18,0.0,0.0,100,0.00,,,0.00,Wunderground v.1.15,2013-07-09 11:55:00,
2013-07-09 08:00:00,65.5,65.5,30.08,NNE,18,0.0,0.0,100,0.00,,,0.00,Wunderground v.1.15,2013-07-09 12:00:00,
2013-07-09 08:05:00,65.5,65.5,30.08,NNE,18,0.0,0.0,100,0.00,,,0.00,Wunderground v.1.15,2013-07-09 12:05:00,
2013-07-09 08:11:00,65.3,65.3,30.09,NNE,18,0.0,0.0,100,0.00,,,0.00,Wunderground v.1.15,2013-07-09 12:11:00,
2013-07-09 08:16:00,65.6,65.6,30.09,NNE,18,0.0,0.0,100,0.00,,,0.00,Wunderground v.1.15,2013-07-09 12:16:00,
2013-07-09 08:21:00,65.6,65.6,30.09,NNE,18,0.0,0.0,100,0.00,,,0.00,Wunderground v.1.15,2013-07-09 12:21:00,
2013-07-09 08:26:00,65.8,65.8,30.09,NNE,18,0.0,0.0,100,0.00,,,0.00,Wunderground v.1.15,2013-07-09 12:26:00,
2013-07-09 08:31:00,65.6,65.6,30.09,NNE,18,0.0,0.0,100,0.00,,,0.00,Wunderground v.1.15,2013-07-09 12:31:00,
2013-07-09 08:36:00,66.0,66.0,30.09,NNE,18,0.0,0.0,100,0.00,,,0.00,Wunderground v.1.15,2013-07-09 12:36:00,
2013-07-09 08:42:00,66.3,66.3,30.09,NNE,18,0.0,0.0,100,0.00,,,0.00,Wunderground v.1.15,2013-07-09 12:42:00,
2013-07-09 08:47:00,66.0,66.0,30.09,NNE,18,0.0,0.0,100,0.00,,,0.00,Wunderground v.1.15,2013-07-09 12:47:00,
2013-07-09 08:52:00,66.1,66.1,30.09,NNE,18,0.0,0.0,100,0.00,,,0.00,Wunderground v.1.15,2013-07-09 12:52:00,
2013-07-09 08:57:00,65.6,65.6,30.09,NNE,18,0.0,0.0,100,0.00,,,0.00,Wunderground v.1.15,2013-07-09 12:57:00,
2013-07-09 09:02:00,66.4,66.4,30.09,NNE,18,0.0,0.0,100,0.00,,,0.00,Wunderground v.1.15,2013-07-09 13:02:00,
2013-07-09 09:07:00,66.3,66.3,30.09,NNE,16,0.0,0.0,100,0.00,,,0.00,Wunderground v.1.15,2013-07-09 13:07:00,
2013-07-09 09:12:00,66.8,66.8,30.09,NNE,16,0.0,0.0,100,0.00,,,0.00,Wunderground v.1.15,2013-07-09 13:12:00,
2013-07-09 09:17:00,66.8,66.8,30.09,NNE,16,0.0,0.0,100,0.00,,,0.00,Wunderground v.1.15,2013-07-09 13:17:00,
2013-07-09 09:22:00,66.9,66.6,30.09,NNE,16,0.0,0.0,99,0.00,,,0.00,Wunderground v.1.15,2013-07-09 13:22:00,
2013-07-09 09:28:00,67.4,67.4,30.08,NNE,16,0.0,0.0,100,0.00,,,0.00,Wunderground v.1.15,2013-07-09 13:28:00,
2013-07-09 09:33:00,67.1,66.8,30.08,NNE,16,0.0,0.0,99,0.00,,,0.00,Wunderground v.1.15,2013-07-09 13:33:00,
2013-07-09 09:38:00,67.3,67.0,30.08,NNE,16,0.0,0.0,99,0.00,,,0.00,Wunderground v.1.15,2013-07-09 13:38:00,
2013-07-09 09:43:00,67.4,67.1,30.08,NNE,16,0.0,0.0,99,0.00,,,0.00,Wunderground v.1.15,2013-07-09 13:43:00,
2013-07-09 09:48:00,67.3,67.0,30.08,NNE,16,0.0,0.0,99,0.00,,,0.00,Wunderground v.1.15,2013-07-09 13:48:00,
2013-07-09 09:53:00,67.4,67.1,30.08,NNE,16,0.0,0.0,99,0.00,,,0.00,Wunderground v.1.15,2013-07-09 13:53:00,
2013-07-09 09:59:00,67.1,66.8,30.08,NNE,16,0.0,0.0,99,0.00,,,0.00,Wunderground v.1.15,2013-07-09 13:59:00,
2013-07-09 10:04:00,66.9,66.3,30.08,NNE,16,0.0,0.0,98,0.00,,,0.00,Wunderground v.1.15,2013-07-09 14:04:00,
2013-07-09 10:09:00,67.3,66.7,30.08,NNE,16,0.0,0.0,98,0.00,,,0.00,Wunderground v.1.15,2013-07-09 14:09:00,
2013-07-09 10:14:00,67.6,67.0,30.08,NNE,16,0.0,0.0,98,0.00,,,0.00,Wunderground v.1.15,2013-07-09 14:14:00,
2013-07-09 10:20:00,67.6,67.0,30.08,NNE,16,0.0,0.0,98,0.00,,,0.00,Wunderground v.1.15,2013-07-09 14:20:00,
2013-07-09 10:25:00,67.4,66.8,30.09,NNE,16,0.0,0.0,98,0.00,,,0.00,Wunderground v.1.15,2013-07-09 14:25:00,
2013-07-09 10:30:00,67.8,67.2,30.09,NNE,16,0.0,0.0,98,0.00,,,0.00,Wunderground v.1.15,2013-07-09 14:30:00,
2013-07-09 10:35:00,68.4,68.1,30.09,NNE,16,0.0,0.0,99,0.00,,,0.00,Wunderground v.1.15,2013-07-09 14:35:00,
2013-07-09 10:40:00,67.9,67.0,30.09,NNE,16,0.0,0.0,97,0.00,,,0.00,Wunderground v.1.15,2013-07-09 14:40:00,
2013-07-09 10:45:00,68.6,66.5,30.09,NNE,16,0.0,0.0,93,0.00,,,0.00,Wunderground v.1.15,2013-07-09 14:45:00,
2013-07-09 10:50:00,68.4,66.9,30.09,NNE,16,0.0,0.0,95,0.00,,,0.00,Wunderground v.1.15,2013-07-09 14:50:00,
2013-07-09 10:56:00,68.8,67.3,30.09,NNE,16,0.0,0.0,95,0.00,,,0.00,Wunderground v.1.15,2013-07-09 14:56:00,
2013-07-09 11:01:00,68.9,67.7,30.09,NNE,16,0.0,0.0,96,0.00,,,0.00,Wunderground v.1.15,2013-07-09 15:01:00,
2013-07-09 11:06:00,68.9,67.4,30.09,NNE,16,0.0,0.0,95,0.00,,,0.00,Wunderground v.1.15,2013-07-09 15:06:00,
2013-07-09 11:11:00,68.8,67.3,30.08,NNE,16,0.0,0.0,95,0.00,,,0.00,Wunderground v.1.15,2013-07-09 15:11:00,
2013-07-09 11:16:00,69.1,67.9,30.08,NNE,16,0.0,0.0,96,0.00,,,0.00,Wunderground v.1.15,2013-07-09 15:16:00,
2013-07-09 11:21:00,69.1,67.3,30.08,NNE,16,0.0,0.0,94,0.00,,,0.00,Wunderground v.1.15,2013-07-09 15:21:00,
2013-07-09 11:26:00,69.6,68.4,30.08,NNE,16,0.0,0.0,96,0.00,,,0.00,Wunderground v.1.15,2013-07-09 15:26:00,
2013-07-09 11:31:00,69.4,67.6,30.08,NNE,16,0.0,0.0,94,0.00,,,0.00,Wunderground v.1.15,2013-07-09 15:31:00,
2013-07-09 11:36:00,69.6,68.4,30.08,NNE,16,0.0,0.0,96,0.00,,,0.00,Wunderground v.1.15,2013-07-09 15:36:00,
2013-07-09 11:41:00,69.4,67.9,30.08,NNE,16,0.0,0.0,95,0.00,,,0.00,Wunderground v.1.15,2013-07-09 15:41:00,
2013-07-09 11:46:00,70.6,68.8,30.08,NNE,15,0.0,0.0,94,0.00,,,0.00,Wunderground v.1.15,2013-07-09 15:46:00,
2013-07-09 11:52:00,70.9,69.1,30.08,NNE,15,0.0,0.0,94,0.00,,,0.00,Wunderground v.1.15,2013-07-09 15:52:00,
2013-07-09 11:57:00,70.8,68.4,30.08,NNE,15,0.0,0.0,92,0.00,,,0.00,Wunderground v.1.15,2013-07-09 15:57:00,
2013-07-09 12:02:00,71.1,69.3,30.08,NNE,15,0.0,1.0,94,0.00,,,0.00,Wunderground v.1.15,2013-07-09 16:02:00,
2013-07-09 12:07:00,70.8,67.7,30.08,NNE,15,0.0,0.0,90,0.00,,,0.00,Wunderground v.1.15,2013-07-09 16:07:00,
2013-07-09 12:13:00,70.6,67.5,30.08,NNE,15,0.0,0.0,90,0.00,,,0.00,Wunderground v.1.15,2013-07-09 16:13:00,
2013-07-09 12:18:00,70.6,67.2,30.08,NNE,15,0.0,0.0,89,0.00,,,0.00,Wunderground v.1.15,2013-07-09 16:18:00,
2013-07-09 12:23:00,70.8,67.1,30.08,NNE,15,0.0,0.0,88,0.00,,,0.00,Wunderground v.1.15,2013-07-09 16:23:00,
2013-07-09 12:28:00,70.8,68.4,30.08,NNE,15,0.0,0.0,92,0.00,,,0.00,Wunderground v.1.15,2013-07-09 16:28:00,
2013-07-09 12:33:00,70.8,67.7,30.08,NNE,15,0.0,0.0,90,0.00,,,0.00,Wunderground v.1.15,2013-07-09 16:33:00,
2013-07-09 12:38:00,70.9,68.5,30.08,NNE,15,0.0,0.0,92,0.00,,,0.00,Wunderground v.1.15,2013-07-09 16:38:00,
2013-07-09 12:44:00,70.9,67.8,30.08,NNE,15,0.0,0.0,90,0.00,,,0.00,Wunderground v.1.15,2013-07-09 16:44:00,
2013-07-09 12:49:00,71.1,67.7,30.08,NNE,15,0.0,0.0,89,0.00,,,0.00,Wunderground v.1.15,2013-07-09 16:49:00,
2013-07-09 12:54:00,71.6,68.2,30.08,NNE,15,0.0,0.0,89,0.00,,,0.00,Wunderground v.1.15,2013-07-09 16:54:00,
2013-07-09 12:59:00,71.8,68.4,30.07,NNE,15,0.0,0.0,89,0.00,,,0.00,Wunderground v.1.15,2013-07-09 16:59:00,
2013-07-09 13:04:00,72.3,68.5,30.07,NNE,15,0.0,0.0,88,0.00,,,0.00,Wunderground v.1.15,2013-07-09 17:04:00,
2013-07-09 13:10:00,72.5,68.4,30.07,NNE,15,0.0,0.0,87,0.00,,,0.00,Wunderground v.1.15,2013-07-09 17:10:00,
2013-07-09 13:15:00,72.3,69.2,30.07,NNE,15,0.0,0.0,90,0.00,,,0.00,Wunderground v.1.15,2013-07-09 17:15:00,
2013-07-09 13:20:00,72.1,68.0,30.07,NNE,15,0.0,0.0,87,0.00,,,0.00,Wunderground v.1.15,2013-07-09 17:20:00,
2013-07-09 13:25:00,72.0,66.9,30.07,NNE,15,0.0,0.0,84,0.00,,,0.00,Wunderground v.1.15,2013-07-09 17:25:00,
2013-07-09 13:30:00,71.8,67.4,30.07,NNE,15,0.0,0.0,86,0.00,,,0.00,Wunderground v.1.15,2013-07-09 17:30:00,
2013-07-09 13:36:00,71.6,67.5,30.07,NNE,15,0.0,0.0,87,0.00,,,0.00,Wunderground v.1.15,2013-07-09 17:36:00,
2013-07-09 13:41:00,71.5,68.4,30.07,NNE,15,0.0,0.0,90,0.00,,,0.00,Wunderground v.1.15,2013-07-09 17:41:00,
2013-07-09 13:46:00,71.3,67.6,30.07,NNE,15,0.0,0.0,88,0.00,,,0.00,Wunderground v.1.15,2013-07-09 17:46:00,
2013-07-09 13:51:00,71.6,68.8,30.07,NNE,15,0.0,0.0,91,0.00,,,0.00,Wunderground v.1.15,2013-07-09 17:51:00,
2013-07-09 13:56:00,71.6,68.5,30.06,NNE,15,0.0,0.0,90,0.00,,,0.00,Wunderground v.1.15,2013-07-09 17:56:00,
2013-07-09 14:01:00,71.6,69.2,30.06,NNE,15,0.0,0.0,92,0.00,,,0.00,Wunderground v.1.15,2013-07-09 18:01:00,
2013-07-09 14:06:00,71.5,68.7,30.06,NNE,15,0.0,0.0,91,0.00,,,0.00,Wunderground v.1.15,2013-07-09 18:06:00,
2013-07-09 14:12:00,71.3,68.5,30.06,NNE,18,0.0,0.0,91,0.00,,,0.00,Wunderground v.1.15,2013-07-09 18:12:00,
2013-07-09 14:17:00,71.6,68.8,30.06,NNE,18,0.0,0.0,91,0.00,,,0.00,Wunderground v.1.15,2013-07-09 18:17:00,
2013-07-09 14:22:00,71.5,67.8,30.06,NNE,18,0.0,0.0,88,0.00,,,0.00,Wunderground v.1.15,2013-07-09 18:22:00,
2013-07-09 14:27:00,71.8,68.7,30.06,NNE,18,0.0,0.0,90,0.00,,,0.00,Wunderground v.1.15,2013-07-09 18:27:00,
2013-07-09 14:32:00,72.1,69.6,30.06,NNE,18,0.0,0.0,92,0.00,,,0.00,Wunderground v.1.15,2013-07-09 18:32:00,
2013-07-09 14:37:00,72.0,69.9,30.06,NNE,18,0.0,0.0,93,0.00,,,0.00,Wunderground v.1.15,2013-07-09 18:37:00,
2013-07-09 14:43:00,72.1,69.3,30.05,NNE,18,0.0,0.0,91,0.00,,,0.00,Wunderground v.1.15,2013-07-09 18:43:00,
2013-07-09 14:48:00,72.1,69.3,30.05,NNE,18,0.0,0.0,91,0.00,,,0.00,Wunderground v.1.15,2013-07-09 18:48:00,
2013-07-09 14:53:00,72.0,69.5,30.05,NNE,18,0.0,2.0,92,0.00,,,0.00,Wunderground v.1.15,2013-07-09 18:53:00,
2013-07-09 14:58:00,72.0,69.5,30.05,NNE,18,0.0,1.0,92,0.00,,,0.00,Wunderground v.1.15,2013-07-09 18:58:00,
2013-07-09 15:03:00,71.6,68.8,30.05,NNE,18,0.0,1.0,91,0.00,,,0.00,Wunderground v.1.15,2013-07-09 19:03:00,
2013-07-09 15:08:00,71.6,69.5,30.05,NNE,18,0.0,0.0,93,0.00,,,0.00,Wunderground v.1.15,2013-07-09 19:08:00,
2013-07-09 15:13:00,71.3,69.2,30.05,NNE,18,0.0,0.0,93,0.00,,,0.00,Wunderground v.1.15,2013-07-09 19:13:00,
2013-07-09 15:18:00,71.8,69.7,30.05,NNE,18,0.0,0.0,93,0.00,,,0.00,Wunderground v.1.15,2013-07-09 19:18:00,
2013-07-09 15:23:00,72.1,70.0,30.05,NNE,18,0.0,0.0,93,0.00,,,0.00,Wunderground v.1.15,2013-07-09 19:23:00,
2013-07-09 15:28:00,72.3,69.8,30.05,NNE,18,0.0,0.0,92,0.00,,,0.00,Wunderground v.1.15,2013-07-09 19:28:00,
2013-07-09 15:34:00,72.5,69.7,30.05,NNE,18,0.0,0.0,91,0.00,,,0.00,Wunderground v.1.15,2013-07-09 19:34:00,
2013-07-09 15:39:00,72.8,70.7,30.05,NNE,18,0.0,0.0,93,0.00,,,0.00,Wunderground v.1.15,2013-07-09 19:39:00,
2013-07-09 15:44:00,72.7,69.6,30.05,NNE,18,0.0,0.0,90,0.00,,,0.00,Wunderground v.1.15,2013-07-09 19:44:00,
2013-07-09 15:49:00,72.5,69.4,30.05,NNE,18,0.0,0.0,90,0.00,,,0.00,Wunderground v.1.15,2013-07-09 19:49:00,
2013-07-09 15:55:00,72.3,69.5,30.05,NNE,18,0.0,0.0,91,0.00,,,0.00,Wunderground v.1.15,2013-07-09 19:55:00,
2013-07-09 16:00:00,72.0,69.5,30.05,NNE,18,0.0,0.0,92,0.00,,,0.00,Wunderground v.1.15,2013-07-09 20:00:00,
2013-07-09 16:05:00,72.5,70.7,30.05,NNE,18,0.0,0.0,94,0.00,,,0.00,Wunderground v.1.15,2013-07-09 20:05:00,
2013-07-09 16:11:00,72.7,70.6,30.05,NNE,18,0.0,0.0,93,0.00,,,0.00,Wunderground v.1.15,2013-07-09 20:11:00,
2013-07-09 16:16:00,72.3,70.2,30.05,NNE,18,0.0,0.0,93,0.00,,,0.00,Wunderground v.1.15,2013-07-09 20:16:00,
2013-07-09 16:21:00,72.5,70.7,30.05,NNE,18,0.0,0.0,94,0.00,,,0.00,Wunderground v.1.15,2013-07-09 20:21:00,
2013-07-09 16:26:00,73.0,71.2,30.05,NNE,18,0.0,0.0,94,0.00,,,0.00,Wunderground v.1.15,2013-07-09 20:26:00,
2013-07-09 16:31:00,74.4,72.6,30.05,NNE,18,0.0,0.0,94,0.00,,,0.00,Wunderground v.1.15,2013-07-09 20:31:00,
2013-07-09 16:36:00,74.4,72.6,30.05,NNE,18,0.0,0.0,94,0.00,,,0.00,Wunderground v.1.15,2013-07-09 20:36:00,
2013-07-09 16:41:00,74.4,70.3,30.05,NNE,18,0.0,0.0,87,0.00,,,0.00,Wunderground v.1.15,2013-07-09 20:41:00,
2013-07-09 16:46:00,74.2,70.7,30.05,NNE,18,0.0,0.0,89,0.00,,,0.00,Wunderground v.1.15,2013-07-09 20:46:00,
2013-07-09 16:52:00,74.0,70.6,30.05,NNE,19,0.0,0.0,89,0.00,,,0.00,Wunderground v.1.15,2013-07-09 20:52:00,
2013-07-09 16:57:00,73.9,70.1,30.05,NNE,18,0.0,0.0,88,0.00,,,0.00,Wunderground v.1.15,2013-07-09 20:57:00,
2013-07-09 17:02:00,73.7,69.9,30.05,NNE,19,0.0,0.0,88,0.00,,,0.00,Wunderground v.1.15,2013-07-09 21:02:00,
2013-07-09 17:07:00,73.5,70.1,30.05,NNE,19,0.0,0.0,89,0.00,,,0.00,Wunderground v.1.15,2013-07-09 21:07:00,
2013-07-09 17:12:00,73.2,69.8,30.04,NNE,19,0.0,0.0,89,0.00,,,0.00,Wunderground v.1.15,2013-07-09 21:12:00,
2013-07-09 17:17:00,73.2,70.7,30.04,NNE,19,0.0,1.0,92,0.00,,,0.00,Wunderground v.1.15,2013-07-09 21:17:00,
2013-07-09 17:22:00,73.0,69.9,30.04,NNE,19,0.0,1.0,90,0.00,,,0.00,Wunderground v.1.15,2013-07-09 21:22:00,
2013-07-09 17:28:00,73.0,69.9,30.04,NNE,15,0.0,1.0,90,0.00,,,0.00,Wunderground v.1.15,2013-07-09 21:28:00,
2013-07-09 17:33:00,72.8,69.7,30.04,NNE,15,0.0,1.0,90,0.00,,,0.00,Wunderground v.1.15,2013-07-09 21:33:00,
2013-07-09 17:38:00,72.8,69.7,30.04,NNE,15,0.0,0.0,90,0.00,,,0.00,Wunderground v.1.15,2013-07-09 21:38:00,
2013-07-09 17:43:00,72.5,69.4,30.04,NNE,15,0.0,0.0,90,0.00,,,0.00,Wunderground v.1.15,2013-07-09 21:43:00,
2013-07-09 17:48:00,72.7,69.6,30.04,NNE,15,0.0,0.0,90,0.00,,,0.00,Wunderground v.1.15,2013-07-09 21:48:00,
2013-07-09 17:53:00,72.7,69.9,30.04,NNE,15,0.0,0.0,91,0.00,,,0.00,Wunderground v.1.15,2013-07-09 21:53:00,
2013-07-09 17:58:00,72.3,69.5,30.04,NNE,15,0.0,0.0,91,0.00,,,0.00,Wunderground v.1.15,2013-07-09 21:58:00,
2013-07-09 18:03:00,72.3,69.2,30.04,NNE,15,0.0,1.0,90,0.00,,,0.00,Wunderground v.1.15,2013-07-09 22:03:00,
2013-07-09 18:08:00,72.3,69.8,30.04,NNE,15,0.0,1.0,92,0.00,,,0.00,Wunderground v.1.15,2013-07-09 22:08:00,
2013-07-09 18:13:00,72.1,69.0,30.04,NNE,15,0.0,1.0,90,0.00,,,0.00,Wunderground v.1.15,2013-07-09 22:13:00,
2013-07-09 18:18:00,72.0,69.2,30.04,NNE,15,0.0,0.0,91,0.00,,,0.00,Wunderground v.1.15,2013-07-09 22:18:00,
2013-07-09 18:24:00,71.8,69.0,30.04,NNE,15,0.0,0.0,91,0.00,,,0.00,Wunderground v.1.15,2013-07-09 22:24:00,
2013-07-09 18:29:00,71.5,68.7,30.04,NNE,15,0.0,0.0,91,0.00,,,0.00,Wunderground v.1.15,2013-07-09 22:29:00,
2013-07-09 18:34:00,71.1,68.3,30.04,NNE,15,0.0,0.0,91,0.00,,,0.00,Wunderground v.1.15,2013-07-09 22:34:00,
2013-07-09 18:39:00,70.9,68.5,30.04,NNE,15,0.0,0.0,92,0.00,,,0.00,Wunderground v.1.15,2013-07-09 22:39:00,
2013-07-09 18:44:00,70.9,68.8,30.04,NNE,15,0.0,0.0,93,0.00,,,0.00,Wunderground v.1.15,2013-07-09 22:44:00,
2013-07-09 18:49:00,70.9,68.8,30.04,NNE,15,0.0,0.0,93,0.00,,,0.00,Wunderground v.1.15,2013-07-09 22:49:00,
2013-07-09 18:54:00,70.6,68.8,30.04,NNE,15,0.0,0.0,94,0.00,,,0.00,Wunderground v.1.15,2013-07-09 22:54:00,
2013-07-09 18:59:00,70.4,68.9,30.04,NNE,15,0.0,0.0,95,0.00,,,0.00,Wunderground v.1.15,2013-07-09 22:59:00,
2013-07-09 19:04:00,70.4,68.9,30.04,NNE,15,0.0,0.0,95,0.00,,,0.00,Wunderground v.1.15,2013-07-09 23:04:00,
2013-07-09 19:09:00,70.3,68.8,30.04,NNE,15,0.0,0.0,95,0.00,,,0.00,Wunderground v.1.15,2013-07-09 23:09:00,
2013-07-09 19:14:00,70.3,68.8,30.04,NNE,15,0.0,0.0,95,0.00,,,0.00,Wunderground v.1.15,2013-07-09 23:14:00,
2013-07-09 19:20:00,70.1,68.6,30.04,NNE,15,0.0,0.0,95,0.00,,,0.00,Wunderground v.1.15,2013-07-09 23:20:00,
2013-07-09 19:25:00,70.1,68.6,30.04,NNE,15,0.0,0.0,95,0.00,,,0.00,Wunderground v.1.15,2013-07-09 23:25:00,
2013-07-09 19:31:00,70.3,68.8,30.04,NNE,15,0.0,0.0,95,0.00,,,0.00,Wunderground v.1.15,2013-07-09 23:31:00,
2013-07-09 19:36:00,70.1,68.6,30.04,NNE,15,0.0,0.0,95,0.00,,,0.00,Wunderground v.1.15,2013-07-09 23:36:00,
2013-07-09 19:41:00,70.1,68.6,30.04,NNE,15,0.0,0.0,95,0.00,,,0.00,Wunderground v.1.15,2013-07-09 23:41:00,
2013-07-09 19:46:00,70.1,68.9,30.04,NNE,15,0.0,0.0,96,0.00,,,0.00,Wunderground v.1.15,2013-07-09 23:46:00,
2013-07-09 19:51:00,70.1,68.9,30.04,NNE,15,0.0,0.0,96,0.00,,,0.00,Wunderground v.1.15,2013-07-09 23:51:00,
2013-07-09 19:56:00,70.1,68.9,30.04,NNE,15,0.0,0.0,96,0.00,,,0.00,Wunderground v.1.15,2013-07-09 23:56:00,
2013-07-09 20:01:00,70.1,68.9,30.04,NNE,15,0.0,0.0,96,0.00,,,0.00,Wunderground v.1.15,2013-07-10 00:01:00,
2013-07-09 20:06:00,-999.9,-99.9,30.04,North,32767,-999.0,-999.0,255,-99.99,,,0.00,Wunderground v.1.15,2013-07-10 00:06:00,
2013-07-09 20:11:00,-999.9,-99.9,30.04,North,32767,-999.0,-999.0,255,-99.99,,,0.00,Wunderground v.1.15,2013-07-10 00:11:00,
2013-07-09 20:17:00,-999.9,-99.9,30.04,North,32767,-999.0,-999.0,255,-99.99,,,0.00,Wunderground v.1.15,2013-07-10 00:17:00,
2013-07-09 20:22:00,-999.9,-99.9,30.04,North,32767,-999.0,-999.0,255,-99.99,,,0.00,Wunderground v.1.15,2013-07-10 00:22:00,
2013-07-09 20:27:00,-999.9,-99.9,30.04,North,32767,-999.0,-999.0,255,-99.99,,,0.00,Wunderground v.1.15,2013-07-10 00:27:00,
2013-07-09 20:32:00,-999.9,-99.9,30.04,North,32767,-999.0,-999.0,255,-99.99,,,0.00,Wunderground v.1.15,2013-07-10 00:32:00,
2013-07-09 20:37:00,68.6,68.0,30.04,NNE,15,0.0,0.0,98,0.00,,,0.00,Wunderground v.1.15,2013-07-10 00:37:00,
2013-07-09 20:42:00,68.6,68.0,30.04,NNE,15,0.0,0.0,98,0.00,,,0.00,Wunderground v.1.15,2013-07-10 00:42:00,
2013-07-09 20:48:00,68.4,67.8,30.04,NNE,15,0.0,0.0,98,0.00,,,0.00,Wunderground v.1.15,2013-07-10 00:48:00,
2013-07-09 20:53:00,68.4,67.8,30.04,NNE,15,0.0,0.0,98,0.00,,,0.00,Wunderground v.1.15,2013-07-10 00:53:00,
2013-07-09 20:58:00,68.1,67.5,30.03,NNE,15,0.0,0.0,98,0.00,,,0.00,Wunderground v.1.15,2013-07-10 00:58:00,
2013-07-09 21:03:00,67.9,67.6,30.03,NNE,15,0.0,0.0,99,0.00,,,0.00,Wunderground v.1.15,2013-07-10 01:03:00,
2013-07-09 21:08:00,67.9,67.6,30.03,NNE,15,0.0,0.0,99,0.00,,,0.00,Wunderground v.1.15,2013-07-10 01:08:00,
2013-07-09 21:14:00,67.8,67.5,30.04,NNE,15,0.0,0.0,99,0.00,,,0.00,Wunderground v.1.15,2013-07-10 01:14:00,
2013-07-09 21:19:00,67.8,67.5,30.04,NNE,15,0.0,0.0,99,0.00,,,0.00,Wunderground v.1.15,2013-07-10 01:19:00,
2013-07-09 21:24:00,67.8,67.5,30.04,NNE,15,0.0,0.0,99,0.00,,,0.00,Wunderground v.1.15,2013-07-10 01:24:00,
2013-07-09 21:29:00,67.8,67.5,30.04,NNE,15,0.0,0.0,99,0.00,,,0.00,Wunderground v.1.15,2013-07-10 01:29:00,
2013-07-09 21:34:00,67.8,67.8,30.04,NNE,15,0.0,0.0,100,0.00,,,0.00,Wunderground v.1.15,2013-07-10 01:34:00,
2013-07-09 21:39:00,68.1,68.1,30.05,NNE,15,0.0,0.0,100,0.00,,,0.00,Wunderground v.1.15,2013-07-10 01:39:00,
2013-07-09 21:44:00,67.8,67.8,30.05,NNE,15,0.0,0.0,100,0.00,,,0.00,Wunderground v.1.15,2013-07-10 01:44:00,
2013-07-09 21:50:00,67.9,67.9,30.05,NNE,15,0.0,0.0,100,0.00,,,0.00,Wunderground v.1.15,2013-07-10 01:50:00,
2013-07-09 21:55:00,67.9,67.9,30.05,NNE,15,0.0,0.0,100,0.00,,,0.00,Wunderground v.1.15,2013-07-10 01:55:00,
2013-07-09 22:00:00,67.9,67.9,30.05,NNE,15,0.0,0.0,100,0.00,,,0.00,Wunderground v.1.15,2013-07-10 02:00:00,
2013-07-09 22:06:00,68.1,68.1,30.05,NNE,15,0.0,0.0,100,0.00,,,0.00,Wunderground v.1.15,2013-07-10 02:06:00,
2013-07-09 22:11:00,68.1,68.1,30.05,NNE,15,0.0,0.0,100,0.00,,,0.00,Wunderground v.1.15,2013-07-10 02:11:00,
2013-07-09 22:16:00,67.9,67.9,30.05,NNE,15,0.0,0.0,100,0.00,,,0.00,Wunderground v.1.15,2013-07-10 02:16:00,
2013-07-09 22:21:00,67.9,67.9,30.05,NNE,15,0.0,0.0,100,0.00,,,0.00,Wunderground v.1.15,2013-07-10 02:21:00,
2013-07-09 22:26:00,67.8,67.5,30.05,NNE,15,0.0,0.0,99,0.00,,,0.00,Wunderground v.1.15,2013-07-10 02:26:00,
2013-07-09 22:32:00,67.8,67.5,30.05,NNE,15,0.0,0.0,99,0.00,,,0.00,Wunderground v.1.15,2013-07-10 02:32:00,
2013-07-09 22:37:00,67.9,67.6,30.05,NNE,15,0.0,0.0,99,0.00,,,0.00,Wunderground v.1.15,2013-07-10 02:37:00,
2013-07-09 22:42:00,67.9,67.6,30.05,NNE,15,0.0,0.0,99,0.00,,,0.00,Wunderground v.1.15,2013-07-10 02:42:00,
2013-07-09 22:47:00,67.9,67.6,30.05,NNE,15,0.0,0.0,99,0.00,,,0.00,Wunderground v.1.15,2013-07-10 02:47:00,
2013-07-09 22:52:00,67.9,67.6,30.05,NNE,15,0.0,0.0,99,0.00,,,0.00,Wunderground v.1.15,2013-07-10 02:52:00,
2013-07-09 22:57:00,67.9,67.6,30.05,NNE,15,0.0,0.0,99,0.00,,,0.00,Wunderground v.1.15,2013-07-10 02:57:00,
2013-07-09 23:03:00,67.9,67.6,30.05,NNE,15,0.0,0.0,99,0.00,,,0.00,Wunderground v.1.15,2013-07-10 03:03:00,
2013-07-09 23:08:00,67.9,67.6,30.05,NNE,15,0.0,0.0,99,0.00,,,0.00,Wunderground v.1.15,2013-07-10 03:08:00,
2013-07-09 23:13:00,67.9,67.6,30.05,NNE,15,0.0,0.0,99,0.00,,,0.00,Wunderground v.1.15,2013-07-10 03:13:00,
2013-07-09 23:18:00,67.9,67.6,30.05,NNE,15,0.0,0.0,99,0.00,,,0.00,Wunderground v.1.15,2013-07-10 03:18:00,
2013-07-09 23:23:00,67.9,67.6,30.05,NNE,15,0.0,0.0,99,0.00,,,0.00,Wunderground v.1.15,2013-07-10 03:23:00,
2013-07-09 23:28:00,67.8,67.5,30.05,NNE,15,0.0,0.0,99,0.00,,,0.00,Wunderground v.1.15,2013-07-10 03:28:00,
2013-07-09 23:33:00,67.8,67.5,30.05,NNE,15,0.0,0.0,99,0.00,,,0.00,Wunderground v.1.15,2013-07-10 03:33:00,
2013-07-09 23:38:00,-999.9,-99.9,30.05,North,32767,-999.0,0.0,255,-99.99,,,0.00,Wunderground v.1.15,2013-07-10 03:38:00,
2013-07-09 23:43:00,-999.9,-99.9,30.05,North,32767,-999.0,0.0,255,-99.99,,,0.00,Wunderground v.1.15,2013-07-10 03:43:00,
2013-07-09 23:49:00,-999.9,-99.9,30.05,North,32767,-999.0,-999.0,255,-99.99,,,0.00,Wunderground v.1.15,2013-07-10 03:49:00,
2013-07-09 23:54:00,-999.9,-99.9,30.05,NNE,15,0.0,0.0,255,0.00,,,0.00,Wunderground v.1.15,2013-07-10 03:54:00,
2013-07-09 23:59:00,-999.9,-99.9,30.05,NNE,15,0.0,0.0,255,0.00,,,0.00,Wunderground v.1.15,2013-07-10 03:59:00,